Вернуться в каталог

COSMOS 2009

АктивенВоенныеLEO
NORAD 19903·PAYLOAD·🇷🇺 Russia

Запущен Mar 24, 1989 с Plesetsk Cosmodrome

Loading…

Ближайшие Пролёты (ближайшие 24 часа)

TLE

СвежийSource: Space-Track

Эпоха: Sep 14, 2026, 13:07 UTC

1 19903U 89025B   26257.54699610  .00000005  00000-0  12963-3 0  9997
2 19903  74.0142 343.5365 0041475 216.9618 154.1624 12.55950360718189

Отслеживайте COSMOS 2009 в реальном времени с AllMySat

Download on the App Store